User: anonymous   Login
Location: Unspecified
(0.0000°N, 0.0000°E)
Time: 05:32:22
(UTC+02:00)
Language:

Iridium 33 - Orbit

View from above orbital plane
View from above orbital plane
View from above satellite
View from above satellite

Ground track
Ground track

The orbit data is extracted from the following two-line orbital elements,

1 24946U 97051C   16152.36515579  .00000109  00000-0  32468-4 0  9990
2 24946  86.3887  86.5666 0009745  55.6230 304.5886 14.33491828979338
Epoch (UTC): 31 May 2016 08:45:49
Eccentricity: 0.0009745
inclination: 86.3887°
perigee height: 773 km
apogee height: 787 km
right ascension of ascending node: 86.5666°
argument of perigee: 55.6230°
revolutions per day: 14.33491828
mean anomaly at epoch: 304.5886°
orbit number at epoch: 97933

The dashed part of the orbit path shows where the satellite is in the earth's shadow,  

DLR